Location: Boise
(43.6140°N, 116.2030°W)
Time: 14:36:56
(UTC-07:00)

ISS - Visible Passes

Search period start: 25 February 2018 00:00
Search period end: 07 March 2018 00:00
Orbit: 403 x 406 km, 51.6° (Epoch: 26 February)

Date Brightness Start Highest point End Pass type
(mag) Time Alt. Az. Time Alt. Az. Time Alt. Az.
25 Feb -1.6 06:56:59 10° SSW 06:59:48 27° SE 07:02:37 10° ENE visible
26 Feb -0.9 06:05:49 10° S 06:07:46 15° SE 06:09:43 10° E visible
27 Feb -3.3 06:48:25 10° SW 06:51:39 62° SE 06:54:53 10° ENE visible
28 Feb -2.3 05:57:16 15° SSW 05:59:29 33° SE 06:02:28 10° ENE visible
01 Mar -1.4 05:07:32 18° SE 05:07:32 18° SE 05:09:44 10° E visible
01 Mar -3.7 06:40:21 10° WSW 06:43:35 61° NNW 06:46:50 10° NE visible
02 Mar -3.8 05:50:20 42° SW 05:51:18 77° SSE 05:54:34 10° ENE visible
03 Mar -1.7 05:00:19 27° E 05:00:19 27° E 05:02:11 10° ENE visible
03 Mar -2.9 06:32:58 13° W 06:35:36 34° NNW 06:38:38 10° NE visible
04 Mar -3.6 05:42:51 49° NW 05:43:11 51° NNW 05:46:25 10° NE visible
05 Mar -1.5 04:52:39 24° ENE 04:52:39 24° ENE 04:54:07 10° ENE visible
05 Mar -2.2 06:25:18 12° WNW 06:27:40 24° NNW 06:30:25 10° NE visible
06 Mar -2.7 05:35:02 31° NNW 05:35:09 31° NNW 05:38:08 10° NE visible
